When you browse on this site, cookies collect data to enhance your experience and personalize the content and advertising you see.
Visit our Privacy Policy to learn more. By continuing to use the site, you agree to this use of cookies and data.
  • In Hungary
  • List of Countries
  • For 7 days
  • Water Temperature
  • Satellite Maps
  • Weather Map
  • News
  • Weather Widgets
  • user-avatar
    Login

    Hourly Weather Ortigueira

    Today, 19 January, Saturday

    Time Temperature Precipitation Wind Pressure Humidity
    00:00 +20°C° 0 mm 0 mps 694 mmHg 95%
    01:00 +20°C° 0 mm 0 mps 694 mmHg 95%
    02:00 +20°C° 0 mm 0 mps 694 mmHg 96%
    03:00 +19°C° 0 mm 0 mps 693 mmHg 96%
    04:00 +19°C° 0 mm 0 mps 693 mmHg 96%
    05:00 +19°C° 0 mm 0 mps 693 mmHg 96%
    06:00 +19°C° 0 mm 0 mps 693 mmHg 96%
    07:00 +21°C° 0 mm 0 mps 694 mmHg 88%
    08:00 +23°C° 0 mm 0 mps 695 mmHg 80%
    09:00 +26°C° 0 mm 0 mps 695 mmHg 72%
    10:00 +27°C° 0.3 mm 0 mps 696 mmHg 65%
    11:00 +31°C° 0.3 mm 1 mps 696 mmHg 58%
    12:00 +33°C° 0.3 mm 1 mps 696 mmHg 50%
    13:00 +33°C° 0.3 mm 1 mps 695 mmHg 51%
    14:00 +33°C° 0.3 mm 1 mps 695 mmHg 51%
    15:00 +34°C° 0.3 mm 2 mps 694 mmHg 52%
    16:00 +30°C° 1.9 mm 2 mps 694 mmHg 66%
    17:00 +28°C° 1.9 mm 2 mps 693 mmHg 80%
    18:00 +26°C° 1.9 mm 2 mps 693 mmHg 94%
    19:00 +25°C° 0.4 mm 1 mps 693 mmHg 95%
    20:00 +24°C° 0.4 mm 1 mps 693 mmHg 95%
    21:00 +21°C° 0.4 mm 0 mps 694 mmHg 96%
    22:00 +21°C° 0 mm 0 mps 694 mmHg 96%
    23:00 +21°C° 0 mm 0 mps 694 mmHg 96%

    Tomorrow, 20 January, Sunday

    Time Temperature Precipitation Wind Pressure Humidity
    00:00 +20°C° 0 mm 0 mps 694 mmHg 96%
    01:00 +20°C° 0 mm 0 mps 694 mmHg 96%
    02:00 +20°C° 0 mm 0 mps 693 mmHg 96%
    03:00 +20°C° 0 mm 0 mps 693 mmHg 97%
    04:00 +19°C° 0 mm 0 mps 693 mmHg 97%
    05:00 +21°C° 0 mm 1 mps 693 mmHg 97%
    06:00 +21°C° 0 mm 1 mps 693 mmHg 98%
    07:00 +23°C° 0 mm 1 mps 694 mmHg 91%
    08:00 +25°C° 0 mm 1 mps 695 mmHg 85%
    09:00 +26°C° 0 mm 2 mps 696 mmHg 78%
    10:00 +28°C° 0.5 mm 2 mps 696 mmHg 75%
    11:00 +29°C° 0.5 mm 2 mps 695 mmHg 73%
    12:00 +30°C° 0.5 mm 2 mps 695 mmHg 70%
    13:00 +29°C° 1.4 mm 2 mps 695 mmHg 75%
    14:00 +29°C° 1.4 mm 2 mps 695 mmHg 80%
    15:00 +29°C° 1.4 mm 1 mps 694 mmHg 85%
    16:00 +28°C° 1.5 mm 1 mps 694 mmHg 86%
    17:00 +28°C° 1.5 mm 1 mps 694 mmHg 87%
    18:00 +25°C° 1.5 mm 0 mps 693 mmHg 88%
    19:00 +24°C° 0.6 mm 0 mps 693 mmHg 90%
    20:00 +22°C° 0.6 mm 0 mps 694 mmHg 92%
    21:00 +21°C° 0.6 mm 0 mps 694 mmHg 95%
    22:00 +21°C° 0.2 mm 0 mps 694 mmHg 95%
    23:00 +21°C° 0.2 mm 0 mps 694 mmHg 96%

    Day after tomorrow, 21 January, Monday

    Time Temperature Precipitation Wind Pressure Humidity
    00:00 +22°C° 0.2 mm 1 mps 695 mmHg 97%
    01:00 +22°C° 0 mm 1 mps 694 mmHg 97%
    02:00 +22°C° 0 mm 1 mps 694 mmHg 97%
    03:00 +22°C° 0 mm 1 mps 693 mmHg 97%
    04:00 +22°C° 0 mm 1 mps 694 mmHg 97%
    05:00 +21°C° 0 mm 1 mps 694 mmHg 98%
    06:00 +21°C° 0 mm 1 mps 694 mmHg 98%
    07:00 +23°C° 0 mm 1 mps 695 mmHg 90%
    08:00 +25°C° 0 mm 1 mps 695 mmHg 83%
    09:00 +27°C° 0 mm 1 mps 696 mmHg 76%
    10:00 +28°C° 0.8 mm 2 mps 696 mmHg 77%
    11:00 +29°C° 0.8 mm 2 mps 696 mmHg 78%
    12:00 +29°C° 0.8 mm 2 mps 696 mmHg 79%
    13:00 +29°C° 1.3 mm 2 mps 696 mmHg 78%
    14:00 +29°C° 1.3 mm 2 mps 695 mmHg 77%
    15:00 +29°C° 1.3 mm 2 mps 695 mmHg 76%
    16:00 +29°C° 0.4 mm 1 mps 695 mmHg 75%
    17:00 +29°C° 0.4 mm 1 mps 695 mmHg 74%
    18:00 +29°C° 0.4 mm 1 mps 695 mmHg 72%
    19:00 +27°C° 0.2 mm 1 mps 695 mmHg 79%
    20:00 +23°C° 0.2 mm 0 mps 695 mmHg 86%
    21:00 +22°C° 0.2 mm 0 mps 696 mmHg 92%
    22:00 +21°C° 0 mm 0 mps 696 mmHg 93%
    23:00 +21°C° 0 mm 0 mps 696 mmHg 94%

    22 January, Tuesday

    Time Temperature Precipitation Wind Pressure Humidity
    00:00 +21°C° 0 mm 0 mps 696 mmHg 94%
    01:00 +21°C° 0 mm 0 mps 695 mmHg 95%
    02:00 +20°C° 0 mm 0 mps 695 mmHg 96%
    03:00 +20°C° 0 mm 0 mps 694 mmHg 96%
    04:00 +20°C° 0 mm 0 mps 695 mmHg 97%
    05:00 +20°C° 0 mm 0 mps 695 mmHg 97%
    06:00 +19°C° 0 mm 0 mps 695 mmHg 97%
    07:00 +22°C° 0 mm 0 mps 696 mmHg 88%
    08:00 +25°C° 0 mm 0 mps 697 mmHg 79%
    09:00 +27°C° 0 mm 0 mps 697 mmHg 69%
    10:00 +30°C° 0.4 mm 1 mps 697 mmHg 65%
    11:00 +31°C° 0.4 mm 1 mps 697 mmHg 60%
    12:00 +34°C° 0.4 mm 2 mps 697 mmHg 55%
    13:00 +32°C° 1 mm 2 mps 696 mmHg 62%
    14:00 +31°C° 1 mm 2 mps 696 mmHg 70%
    15:00 +31°C° 1 mm 2 mps 695 mmHg 77%
    16:00 +29°C° 1.5 mm 1 mps 695 mmHg 82%
    17:00 +28°C° 1.5 mm 1 mps 695 mmHg 87%
    18:00 +25°C° 1.5 mm 0 mps 695 mmHg 93%
    19:00 +24°C° 0 mm 0 mps 695 mmHg 93%
    20:00 +23°C° 0 mm 0 mps 695 mmHg 94%
    21:00 +22°C° 0 mm 0 mps 695 mmHg 95%
    22:00 +22°C° 0 mm 0 mps 695 mmHg 96%
    23:00 +22°C° 0 mm 0 mps 695 mmHg 96%

    23 January, Wednesday

    Time Temperature Precipitation Wind Pressure Humidity
    00:00 +21°C° 0 mm 0 mps 695 mmHg 96%
    01:00 +21°C° 0 mm 0 mps 695 mmHg 97%
    02:00 +21°C° 0 mm 0 mps 695 mmHg 97%
    03:00 +20°C° 0 mm 0 mps 694 mmHg 97%
    04:00 +20°C° 0 mm 0 mps 695 mmHg 97%
    05:00 +20°C° 0 mm 0 mps 695 mmHg 97%
    06:00 +20°C° 0 mm 0 mps 695 mmHg 97%
    07:00 +22°C° 0 mm 0 mps 696 mmHg 89%
    08:00 +25°C° 0 mm 0 mps 697 mmHg 80%
    09:00 +28°C° 0 mm 0 mps 697 mmHg 71%
    10:00 +29°C° 0 mm 0 mps 697 mmHg 63%
    11:00 +33°C° 0 mm 1 mps 697 mmHg 54%
    12:00 +34°C° 0 mm 1 mps 697 mmHg 46%
    13:00 +34°C° 0.2 mm 1 mps 696 mmHg 48%
    14:00 +35°C° 0.2 mm 2 mps 696 mmHg 49%
    15:00 +35°C° 0.2 mm 2 mps 696 mmHg 50%
    16:00 +31°C° 2.4 mm 2 mps 695 mmHg 65%
    17:00 +28°C° 2.4 mm 2 mps 695 mmHg 80%
    18:00 +26°C° 2.4 mm 1 mps 695 mmHg 94%
    19:00 +25°C° 0.4 mm 1 mps 695 mmHg 95%
    20:00 +25°C° 0.4 mm 1 mps 695 mmHg 96%
    21:00 +22°C° 0.4 mm 0 mps 695 mmHg 97%
    22:00 +22°C° 0 mm 0 mps 695 mmHg 97%
    23:00 +21°C° 0 mm 0 mps 695 mmHg 97%

    24 January, Thursday

    Time Temperature Precipitation Wind Pressure Humidity
    00:00 +23°C° 0 mm 1 mps 695 mmHg 97%
    01:00 +23°C° 0 mm 1 mps 694 mmHg 97%
    02:00 +21°C° 0 mm 0 mps 694 mmHg 97%
    03:00 +21°C° 0 mm 0 mps 693 mmHg 97%
    04:00 +21°C° 0 mm 0 mps 694 mmHg 98%
    05:00 +20°C° 0 mm 0 mps 694 mmHg 98%
    06:00 +20°C° 0 mm 0 mps 694 mmHg 98%
    07:00 +22°C° 0 mm 0 mps 695 mmHg 89%
    08:00 +26°C° 0 mm 1 mps 696 mmHg 80%
    09:00 +29°C° 0 mm 1 mps 696 mmHg 72%
    10:00 +30°C° 0.2 mm 1 mps 696 mmHg 64%
    11:00 +32°C° 0.2 mm 1 mps 696 mmHg 55%
    12:00 +34°C° 0.2 mm 1 mps 696 mmHg 47%
    13:00 +33°C° 1 mm 1 mps 695 mmHg 51%
    14:00 +33°C° 1 mm 1 mps 695 mmHg 55%
    15:00 +32°C° 1 mm 1 mps 694 mmHg 60%
    16:00 +30°C° 3.7 mm 1 mps 694 mmHg 71%
    17:00 +27°C° 3.7 mm 1 mps 694 mmHg 83%
    18:00 +25°C° 3.7 mm 1 mps 693 mmHg 95%
    19:00 +24°C° 0.2 mm 1 mps 694 mmHg 95%
    20:00 +23°C° 0.2 mm 1 mps 694 mmHg 95%
    21:00 +23°C° 0.2 mm 1 mps 694 mmHg 95%
    22:00 +22°C° 0.2 mm 1 mps 695 mmHg 96%
    23:00 +22°C° 0.2 mm 1 mps 695 mmHg 97%
    Show more